THA104 VYYY-VTBS

Flight info

Callsign THA104
Flight time 0h 59m
Altitude 33000
Route MARDO1A BETNO G463 TARED WILLA1C
Aircraft A320/M-SDE3FGHIRWY/LB1

Departure

Time 2026-05-06 15:50
Airport Yangon International Airport (VYYY)

Arrival

Time 2026-05-06 16:49
Airport Suvarnabhumi Airport (VTBS)
Time Latitude Longitude Altitude Speed Heading
2026-05-06 15:34 16.90066 96.13301 94 ft 0 kts 123°
2026-05-06 15:42 16.90066 96.13300 95 ft 1 kts 123°
2026-05-06 15:43 16.90075 96.13287 96 ft 3 kts 123°
2026-05-06 15:43 16.90086 96.13269 94 ft 3 kts 124°
2026-05-06 15:43 16.90097 96.13252 94 ft 3 kts 125°
2026-05-06 15:43 16.90109 96.13235 95 ft 3 kts 127°
2026-05-06 15:44 16.90122 96.13218 95 ft 3 kts 129°
2026-05-06 15:44 16.90135 96.13202 95 ft 3 kts 135°
2026-05-06 15:44 16.90150 96.13188 94 ft 3 kts 153°
2026-05-06 15:44 16.90165 96.13183 95 ft 2 kts 200°
2026-05-06 15:45 16.90169 96.13185 95 ft 0 kts 213°
2026-05-06 15:47 16.90147 96.13170 95 ft 9 kts 213°
2026-05-06 15:47 16.90076 96.13122 97 ft 15 kts 213°
2026-05-06 15:47 16.89974 96.13053 97 ft 19 kts 213°
2026-05-06 15:47 16.89855 96.12973 96 ft 22 kts 213°
2026-05-06 15:48 16.89747 96.12893 96 ft 16 kts 232°
2026-05-06 15:48 16.89743 96.12802 97 ft 9 kts 300°
2026-05-06 15:48 16.89777 96.12745 98 ft 10 kts 303°
2026-05-06 15:48 16.89827 96.12717 98 ft 8 kts 35°
2026-05-06 15:49 16.89833 96.12721 98 ft 2 kts 33°
2026-05-06 15:49 16.90044 96.12863 96 ft 75 kts 33°
2026-05-06 15:49 16.90656 96.13278 96 ft 135 kts 33°
2026-05-06 15:49 16.91578 96.13899 299 ft 162 kts 34°
2026-05-06 15:50 16.92504 96.14531 915 ft 162 kts 33°
2026-05-06 15:50 16.93475 96.15192 1342 ft 175 kts 32°
2026-05-06 15:50 16.94556 96.15933 1597 ft 195 kts 32°
2026-05-06 15:50 16.95757 96.16754 1840 ft 218 kts 33°
2026-05-06 15:51 16.96876 96.17925 2082 ft 242 kts 63°
2026-05-06 15:51 16.97226 96.19684 2455 ft 261 kts 100°
2026-05-06 15:51 16.96477 96.21417 3054 ft 268 kts 133°
2026-05-06 15:51 16.95204 96.22864 3919 ft 272 kts 135°
2026-05-06 15:52 16.93876 96.24288 4788 ft 276 kts 135°
2026-05-06 15:52 16.92515 96.25724 5657 ft 279 kts 134°
2026-05-06 15:52 16.91145 96.27174 6577 ft 280 kts 134°
2026-05-06 15:52 16.89776 96.28634 7427 ft 282 kts 134°
2026-05-06 15:53 16.88400 96.30112 8261 ft 285 kts 134°
2026-05-06 15:53 16.87015 96.31605 9062 ft 288 kts 134°
2026-05-06 15:53 16.85616 96.33116 9877 ft 290 kts 134°
2026-05-06 15:53 16.84175 96.34678 10160 ft 312 kts 134°
2026-05-06 15:54 16.82609 96.36373 10480 ft 329 kts 134°
2026-05-06 15:54 16.80997 96.38117 11019 ft 337 kts 134°
2026-05-06 15:54 16.79355 96.39893 11620 ft 343 kts 134°
2026-05-06 15:54 16.77687 96.41696 12222 ft 348 kts 134°
2026-05-06 15:55 16.75994 96.43526 12819 ft 353 kts 134°
2026-05-06 15:55 16.74275 96.45384 13420 ft 358 kts 135°
2026-05-06 15:55 16.72536 96.47263 13976 ft 363 kts 134°
2026-05-06 15:55 16.70779 96.49164 14574 ft 364 kts 134°
2026-05-06 15:56 16.69014 96.51074 15145 ft 367 kts 134°
2026-05-06 15:56 16.67232 96.53003 15720 ft 370 kts 134°
2026-05-06 15:56 16.65461 96.54916 16272 ft 373 kts 134°
2026-05-06 15:56 16.63651 96.56870 16833 ft 376 kts 134°
2026-05-06 15:57 16.61824 96.58839 17384 ft 379 kts 134°
2026-05-06 15:57 16.59984 96.60821 17938 ft 382 kts 134°
2026-05-06 15:57 16.58128 96.62820 18439 ft 385 kts 134°
2026-05-06 15:57 16.56259 96.64830 18941 ft 387 kts 134°
2026-05-06 15:58 16.54384 96.66849 19423 ft 390 kts 134°
2026-05-06 15:58 16.52490 96.68891 19920 ft 392 kts 134°
2026-05-06 15:58 16.50586 96.70945 20405 ft 395 kts 134°
2026-05-06 15:58 16.48663 96.73016 20899 ft 398 kts 134°
2026-05-06 15:59 16.47387 96.74389 21217 ft 400 kts 134°
2026-05-06 15:59 16.45441 96.76482 21705 ft 403 kts 134°
2026-05-06 15:59 16.43481 96.78591 22190 ft 406 kts 134°
2026-05-06 15:59 16.41512 96.80708 22670 ft 409 kts 134°
2026-05-06 16:00 16.39522 96.82848 23133 ft 412 kts 134°
2026-05-06 16:00 16.37522 96.85000 23562 ft 415 kts 134°
2026-05-06 16:00 16.35503 96.87172 23892 ft 419 kts 134°
2026-05-06 16:00 16.33472 96.89356 24233 ft 422 kts 134°
2026-05-06 16:01 16.31422 96.91560 24570 ft 425 kts 134°
2026-05-06 16:01 16.29350 96.93777 24918 ft 428 kts 134°
2026-05-06 16:01 16.27263 96.96006 25262 ft 431 kts 134°
2026-05-06 16:01 16.25166 96.98248 25606 ft 433 kts 134°
2026-05-06 16:02 16.23081 97.00480 25926 ft 436 kts 134°
2026-05-06 16:02 16.20958 97.02758 26267 ft 439 kts 134°
2026-05-06 16:02 16.18824 97.05045 26593 ft 441 kts 134°
2026-05-06 16:02 16.16675 97.07349 26917 ft 444 kts 134°
2026-05-06 16:03 16.14520 97.09657 27268 ft 445 kts 134°
2026-05-06 16:03 16.12382 97.11947 27560 ft 448 kts 134°
2026-05-06 16:03 16.10214 97.14268 27852 ft 451 kts 134°
2026-05-06 16:03 16.08019 97.16617 28158 ft 454 kts 134°
2026-05-06 16:04 16.05815 97.18975 28477 ft 456 kts 134°
2026-05-06 16:04 16.03601 97.21342 28816 ft 457 kts 134°
2026-05-06 16:04 16.01378 97.23717 29131 ft 460 kts 134°
2026-05-06 16:04 15.99141 97.26106 29442 ft 462 kts 134°
2026-05-06 16:05 15.96881 97.28522 29742 ft 465 kts 134°
2026-05-06 16:05 15.94622 97.30938 30049 ft 467 kts 134°
2026-05-06 16:05 15.92350 97.33366 30319 ft 469 kts 134°
2026-05-06 16:05 15.90065 97.35807 30589 ft 471 kts 134°
2026-05-06 16:06 15.87795 97.38226 30839 ft 473 kts 134°
2026-05-06 16:06 15.85482 97.40680 31100 ft 475 kts 134°
2026-05-06 16:06 15.83167 97.43136 31374 ft 476 kts 134°
2026-05-06 16:06 15.80844 97.45607 31633 ft 478 kts 134°
2026-05-06 16:07 15.78518 97.48088 31961 ft 478 kts 134°
2026-05-06 16:07 15.76197 97.50566 32320 ft 478 kts 134°
2026-05-06 16:07 15.73876 97.53045 32674 ft 478 kts 134°
2026-05-06 16:07 15.71556 97.55516 32846 ft 478 kts 134°
2026-05-06 16:08 15.69287 97.57929 32880 ft 467 kts 134°
2026-05-06 16:08 15.67032 97.60326 32879 ft 462 kts 134°
2026-05-06 16:08 15.62540 97.65094 32882 ft 460 kts 134°
2026-05-06 16:09 15.58061 97.69845 32879 ft 460 kts 134°
2026-05-06 16:09 15.53620 97.74557 32887 ft 460 kts 134°
2026-05-06 16:10 15.49151 97.79302 32886 ft 460 kts 134°
2026-05-06 16:10 15.44672 97.84044 32893 ft 460 kts 134°
2026-05-06 16:11 15.40200 97.88772 32896 ft 459 kts 134°
2026-05-06 16:11 15.35725 97.93506 32909 ft 459 kts 134°
2026-05-06 16:12 15.31249 97.98243 32910 ft 459 kts 134°
2026-05-06 16:12 15.26774 98.02973 32910 ft 459 kts 134°
2026-05-06 16:13 15.22324 98.07667 32921 ft 459 kts 134°
2026-05-06 16:13 15.17842 98.12392 32921 ft 459 kts 134°
2026-05-06 16:14 15.13373 98.17113 32921 ft 459 kts 134°
2026-05-06 16:14 15.09255 98.22155 32929 ft 457 kts 120°
2026-05-06 16:15 15.06311 98.27984 32921 ft 456 kts 116°
2026-05-06 16:15 15.03399 98.33823 32920 ft 457 kts 116°
2026-05-06 16:16 15.00487 98.39629 32934 ft 457 kts 116°
2026-05-06 16:16 14.97566 98.45480 32932 ft 457 kts 116°
2026-05-06 16:17 14.94655 98.51330 32937 ft 457 kts 116°
2026-05-06 16:17 14.91736 98.57179 32939 ft 457 kts 116°
2026-05-06 16:18 14.88836 98.62986 32939 ft 457 kts 116°
2026-05-06 16:18 14.85914 98.68840 32926 ft 457 kts 116°
2026-05-06 16:19 14.84453 98.71759 32675 ft 455 kts 116°
2026-05-06 16:19 14.83006 98.74647 32410 ft 451 kts 116°
2026-05-06 16:19 14.81568 98.77516 32144 ft 447 kts 116°
2026-05-06 16:19 14.80139 98.80366 31883 ft 445 kts 116°
2026-05-06 16:20 14.78718 98.83202 31621 ft 443 kts 116°
2026-05-06 16:20 14.77324 98.85991 31373 ft 441 kts 116°
2026-05-06 16:20 14.75902 98.88834 31094 ft 439 kts 116°
2026-05-06 16:20 14.74519 98.91599 30844 ft 437 kts 116°
2026-05-06 16:21 14.73124 98.94384 30596 ft 436 kts 116°
2026-05-06 16:21 14.71731 98.97162 30349 ft 434 kts 116°
2026-05-06 16:21 14.70344 98.99923 30100 ft 433 kts 116°
2026-05-06 16:21 14.68959 99.02678 29828 ft 431 kts 116°
2026-05-06 16:22 14.67579 99.05422 29540 ft 430 kts 116°
2026-05-06 16:22 14.66201 99.08152 29252 ft 427 kts 116°
2026-05-06 16:22 14.64835 99.10865 28959 ft 423 kts 116°
2026-05-06 16:22 14.63489 99.13549 28676 ft 419 kts 116°
2026-05-06 16:23 14.62155 99.16208 28398 ft 416 kts 116°
2026-05-06 16:23 14.60827 99.18851 28123 ft 414 kts 116°
2026-05-06 16:23 14.59520 99.21448 27853 ft 412 kts 116°
2026-05-06 16:23 14.58200 99.24068 27563 ft 410 kts 116°
2026-05-06 16:24 14.56872 99.26706 27287 ft 408 kts 116°
2026-05-06 16:24 14.55583 99.29262 27024 ft 406 kts 116°
2026-05-06 16:24 14.54283 99.31838 26769 ft 404 kts 116°
2026-05-06 16:24 14.52988 99.34408 26508 ft 402 kts 116°
2026-05-06 16:25 14.51701 99.36963 26250 ft 400 kts 116°
2026-05-06 16:25 14.50418 99.39504 25987 ft 398 kts 116°
2026-05-06 16:25 14.49139 99.42037 25732 ft 397 kts 116°
2026-05-06 16:25 14.47867 99.44556 25482 ft 395 kts 116°
2026-05-06 16:26 14.46601 99.47064 25226 ft 393 kts 116°
2026-05-06 16:26 14.45338 99.49570 24972 ft 393 kts 115°
2026-05-06 16:26 14.44317 99.52167 24724 ft 390 kts 105°
2026-05-06 16:26 14.43751 99.54894 24474 ft 387 kts 96°
2026-05-06 16:27 14.43552 99.57658 24234 ft 386 kts 92°
2026-05-06 16:27 14.43382 99.60413 23995 ft 384 kts 92°
2026-05-06 16:27 14.43212 99.63162 23758 ft 383 kts 92°
2026-05-06 16:27 14.43042 99.65867 23526 ft 381 kts 93°
2026-05-06 16:28 14.42869 99.68597 23249 ft 380 kts 93°
2026-05-06 16:28 14.42696 99.71309 22966 ft 378 kts 93°
2026-05-06 16:28 14.42524 99.74011 22687 ft 376 kts 93°
2026-05-06 16:28 14.42353 99.76699 22407 ft 374 kts 93°
2026-05-06 16:29 14.42180 99.79375 22132 ft 373 kts 93°
2026-05-06 16:29 14.42007 99.82045 21858 ft 371 kts 93°
2026-05-06 16:29 14.41836 99.84695 21589 ft 369 kts 92°
2026-05-06 16:29 14.41669 99.87304 21323 ft 368 kts 92°
2026-05-06 16:30 14.41500 99.89928 21047 ft 366 kts 92°
2026-05-06 16:30 14.41387 99.91695 20862 ft 365 kts 92°
2026-05-06 16:30 14.41168 99.95146 20524 ft 362 kts 92°
2026-05-06 16:30 14.41004 99.97736 20260 ft 361 kts 92°
2026-05-06 16:31 14.40839 100.00313 20002 ft 359 kts 92°
2026-05-06 16:31 14.40672 100.02883 19748 ft 358 kts 92°
2026-05-06 16:31 14.40489 100.05441 19493 ft 357 kts 96°
2026-05-06 16:31 14.39982 100.07941 19250 ft 356 kts 103°
2026-05-06 16:32 14.39360 100.10418 18998 ft 355 kts 103°
2026-05-06 16:32 14.38743 100.12875 18753 ft 354 kts 103°
2026-05-06 16:32 14.38129 100.15326 18507 ft 352 kts 103°
2026-05-06 16:32 14.37521 100.17765 18268 ft 351 kts 103°
2026-05-06 16:33 14.36921 100.20166 18010 ft 349 kts 103°
2026-05-06 16:33 14.36308 100.22618 17729 ft 348 kts 103°
2026-05-06 16:33 14.35713 100.24999 17452 ft 346 kts 103°
2026-05-06 16:34 14.34520 100.29782 16909 ft 342 kts 103°
2026-05-06 16:34 14.33928 100.32157 16638 ft 340 kts 103°
2026-05-06 16:34 14.33339 100.34511 16370 ft 338 kts 103°
2026-05-06 16:34 14.32749 100.36855 16104 ft 337 kts 103°
2026-05-06 16:35 14.32162 100.39191 15830 ft 335 kts 103°
2026-05-06 16:35 14.31605 100.41410 15560 ft 337 kts 104°
2026-05-06 16:35 14.31018 100.43754 15278 ft 334 kts 103°
2026-05-06 16:35 14.30438 100.46054 14998 ft 328 kts 103°
2026-05-06 16:36 14.29867 100.48316 14720 ft 323 kts 103°
2026-05-06 16:36 14.29306 100.50537 14440 ft 318 kts 103°
2026-05-06 16:36 14.28762 100.52706 14175 ft 314 kts 103°
2026-05-06 16:36 14.28221 100.54865 13839 ft 308 kts 103°
2026-05-06 16:37 14.27685 100.57002 13425 ft 307 kts 103°
2026-05-06 16:37 14.27135 100.59164 12889 ft 315 kts 104°
2026-05-06 16:37 14.26579 100.61349 12272 ft 315 kts 104°
2026-05-06 16:37 14.26029 100.63526 11659 ft 313 kts 104°
2026-05-06 16:38 14.25484 100.65688 11059 ft 310 kts 104°
2026-05-06 16:38 14.24947 100.67829 10444 ft 307 kts 104°
2026-05-06 16:38 14.24418 100.69946 9803 ft 303 kts 104°
2026-05-06 16:38 14.23898 100.72037 9105 ft 300 kts 104°
2026-05-06 16:39 14.23366 100.74075 8422 ft 296 kts 110°
2026-05-06 16:39 14.22286 100.75852 7746 ft 294 kts 135°
2026-05-06 16:39 14.20589 100.76986 7132 ft 291 kts 159°
2026-05-06 16:39 14.18689 100.77582 6886 ft 284 kts 163°
2026-05-06 16:40 14.16803 100.78163 6627 ft 280 kts 162°
2026-05-06 16:40 14.14956 100.78739 6376 ft 278 kts 162°
2026-05-06 16:40 14.13108 100.79315 6115 ft 277 kts 162°
2026-05-06 16:40 14.11267 100.79886 5846 ft 276 kts 162°
2026-05-06 16:41 14.09435 100.80451 5587 ft 273 kts 162°
2026-05-06 16:41 14.07623 100.81008 5313 ft 270 kts 162°
2026-05-06 16:41 14.05835 100.81558 5049 ft 266 kts 162°
2026-05-06 16:41 14.04072 100.82100 4791 ft 263 kts 162°
2026-05-06 16:42 14.02286 100.82472 4524 ft 261 kts 176°
2026-05-06 16:42 14.00494 100.82255 4251 ft 257 kts 193°
2026-05-06 16:42 13.98826 100.81813 3988 ft 243 kts 193°
2026-05-06 16:42 13.97231 100.81389 3723 ft 230 kts 193°
2026-05-06 16:43 13.95723 100.80991 3537 ft 215 kts 193°
2026-05-06 16:43 13.94333 100.80625 3501 ft 201 kts 193°
2026-05-06 16:43 13.92990 100.80272 3502 ft 198 kts 193°
2026-05-06 16:43 13.91654 100.79920 3502 ft 197 kts 193°
2026-05-06 16:44 13.90326 100.79571 3504 ft 197 kts 193°
2026-05-06 16:44 13.88994 100.79220 3463 ft 198 kts 193°
2026-05-06 16:44 13.87679 100.78874 3279 ft 196 kts 193°
2026-05-06 16:44 13.86380 100.78531 3079 ft 191 kts 192°
2026-05-06 16:45 13.85103 100.78195 2818 ft 187 kts 193°
2026-05-06 16:45 13.83853 100.77866 2586 ft 184 kts 193°
2026-05-06 16:45 13.82627 100.77543 2344 ft 178 kts 193°
2026-05-06 16:45 13.81459 100.77236 2127 ft 169 kts 193°
2026-05-06 16:46 13.80368 100.76949 1925 ft 161 kts 193°
2026-05-06 16:46 13.79321 100.76673 1742 ft 148 kts 193°
2026-05-06 16:46 13.78362 100.76421 1550 ft 138 kts 194°
2026-05-06 16:46 13.77446 100.76180 1361 ft 135 kts 194°
2026-05-06 16:47 13.76546 100.75942 1197 ft 133 kts 193°
2026-05-06 16:47 13.75953 100.75786 1087 ft 132 kts 194°
2026-05-06 16:47 13.75060 100.75551 899 ft 132 kts 194°
2026-05-06 16:47 13.74162 100.75316 756 ft 134 kts 194°
2026-05-06 16:48 13.73260 100.75078 615 ft 134 kts 194°
2026-05-06 16:48 13.72068 100.74763 403 ft 133 kts 193°
2026-05-06 16:48 13.71468 100.74605 292 ft 133 kts 193°
2026-05-06 16:48 13.70573 100.74370 98 ft 133 kts 193°
2026-05-06 16:49 13.69720 100.74148 14 ft 112 kts 194°
2026-05-06 16:49 13.69138 100.73995 14 ft 48 kts 194°
2026-05-06 16:49 13.68922 100.73962 15 ft 29 kts 176°
2026-05-06 16:49 13.68766 100.73995 16 ft 13 kts 165°
2026-05-06 16:50 13.68713 100.74069 15 ft 15 kts 104°
2026-05-06 16:50 13.68683 100.74185 14 ft 19 kts 105°
2026-05-06 16:50 13.68653 100.74309 14 ft 12 kts 100°
2026-05-06 16:50 13.68704 100.74372 14 ft 14 kts 15°
2026-05-06 16:51 13.68807 100.74399 14 ft 17 kts 14°
2026-05-06 16:51 13.68913 100.74428 14 ft 12 kts 14°
2026-05-06 16:51 13.68944 100.74451 15 ft 6 kts 100°
2026-05-06 16:51 13.68932 100.74503 14 ft 9 kts 103°
2026-05-06 16:52 13.68925 100.74535 14 ft 0 kts 103°